FW5345 Weather Reports


time (UTC)temp
C
wind
direction
speed
KPH
gust
KPH
rain 1hr
cm
rain 24hr
cm
rain mn
cm
humidity
%
barometer
mb
20260508041535 15 325 11.3 20.9 0.00 0.00 0.00 32 1016.7
20260508040036 16 318 12.9 25.7 0.00 0.00 0.00 28 1016.6
20260508034642 16 306 14.5 24.1 0.00 0.00 0.00 30 1016.4
20260508033111 16 316 12.9 25.7 0.00 0.00 0.00 34 1016.1
20260508030030 16 320 9.7 20.9 0.00 0.00 0.00 35 1016.3
20260508024530 17 316 9.7 25.7 0.00 0.00 0.00 34 1016.3
20260508021647 18 318 9.7 12.9 0.00 0.00 0.00 36 1016.0
20260508020034 19 314 11.3 20.9 0.00 0.00 0.00 33 1016.0
20260508011642 20 312 9.7 27.4 0.00 0.00 0.00 30 1016.2
20260508010035 20 310 11.3 19.3 0.00 0.00 0.00 29 1016.2
20260508004529 20 307 11.3 22.5 0.00 0.00 0.00 29 1016.2
20260508003108 21 311 14.5 25.7 0.00 0.00 0.00 29 1016.1
20260508001536 21 299 11.3 29.0 0.00 0.00 0.00 27 1016.1
20260508000038 21 305 12.9 27.4 0.00 0.00 0.00 25 1016.1
20260507234609 21 301 12.9 29.0 0.00 0.00 0.00 25 1016.0
20260507231607 21 310 14.5 32.2 0.00 0.00 0.00 25 1016.2
20260507230035 21 306 14.5 32.2 0.00 0.00 0.00 25 1016.3
20260507224534 21 309 12.9 25.7 0.00 0.00 0.00 24 1016.4
20260507223031 21 305 12.9 25.7 0.00 0.00 0.00 25 1016.5
20260507220038 21 308 11.3 27.4 0.00 0.00 0.00 28 1017.0
20260507214641 21 322 11.3 20.9 0.00 0.00 0.00 29 1017.0
20260507213030 21 331 12.9 29.0 0.00 0.00 0.00 31 1017.1
20260507211537 20 338 14.5 22.5 0.00 0.00 0.00 31 1017.1
20260507210142 20 330 12.9 29.0 0.00 0.00 0.00 32 1017.3
20260507203107 20 327 12.9 24.1 0.00 0.00 0.00 34 1017.4
20260507200153 20 311 14.5 27.4 0.00 0.00 0.00 34 1017.7
20260507193110 20 305 12.9 24.1 0.00 0.00 0.00 33 1017.9
20260507190034 18 318 11.3 24.1 0.00 0.00 0.00 35 1018.0
20260507184535 18 314 12.9 25.7 0.00 0.00 0.00 36 1018.1
20260507183037 18 320 11.3 20.9 0.00 0.00 0.00 38 1018.2
20260507181536 17 305 12.9 20.9 0.00 0.00 0.00 40 1018.4
20260507174652 16 310 12.9 25.7 0.00 0.00 0.00 46 1018.7
20260507171538 15 337 11.3 22.5 0.00 0.00 0.00 52 1018.9
20260507170033 15 346 9.7 17.7 0.00 0.00 0.00 55 1018.8
20260507164535 14 357 11.3 20.9 0.00 0.00 0.00 56 1018.8
20260507163037 14 7 12.9 22.5 0.00 0.00 0.00 58 1018.8
20260507161539 14 360 9.7 19.3 0.00 0.00 0.00 58 1018.8
20260507160032 13 12 9.7 20.9 0.00 0.00 0.00 59 1018.8
20260507154534 13 20 12.9 20.9 0.00 0.00 0.00 60 1018.9
20260507153032 13 3 8.0 17.7 0.00 0.00 0.00 61 1018.9
20260507150047 11 355 6.4 12.9 0.00 0.00 0.00 70 1019.0
20260507144644 11 4 8.0 14.5 0.00 0.00 0.00 72 1019.0
20260507141642 10 77 3.2 6.4 0.00 0.00 0.00 75 1018.9
20260507140035 11 33 4.8 11.3 0.00 0.00 0.00 72 1018.7
20260507134533 11 317 4.8 11.3 0.00 0.00 0.00 72 1018.7
20260507133041 11 325 6.4 12.9 0.00 0.00 0.00 72 1018.7
20260507131536 11 318 8.0 25.7 0.00 0.00 0.00 73 1018.7
20260507130036 11 333 8.0 20.9 0.00 0.00 0.00 73 1018.7
20260507123031 12 325 8.0 24.1 0.00 0.00 0.00 70 1018.7
20260507121532 12 305 9.7 25.7 0.00 0.00 0.00 70 1018.6
20260507114535 12 278 8.0 32.2 0.00 0.00 0.00 69 1018.6
20260507113033 12 264 11.3 32.2 0.00 0.00 0.00 69 1018.6
20260507111652 12 252 11.3 29.0 0.00 0.00 0.00 70 1018.6
20260507110108 12 265 8.0 29.0 0.00 0.00 0.00 70 1018.6
20260507103037 12 255 8.0 27.4 0.00 0.00 0.00 69 1018.5
20260507101537 12 260 8.0 30.6 0.00 0.00 0.00 67 1018.6
20260507100049 13 246 4.8 16.1 0.00 0.00 0.00 66 1018.7
20260507093036 13 256 6.4 19.3 0.00 0.00 0.00 65 1018.9
20260507091530 13 258 6.4 16.1 0.00 0.00 0.00 66 1019.0
20260507083033 12 240 3.2 14.5 0.00 0.00 0.00 70 1019.5
20260507081536 13 299 6.4 17.7 0.00 0.00 0.00 70 1019.5
20260507080031 13 298 9.7 20.9 0.00 0.00 0.00 71 1019.5
20260507074536 13 311 8.0 16.1 0.00 0.00 0.00 70 1019.6
20260507071534 13 299 8.0 20.9 0.00 0.00 0.00 69 1019.5
20260507070035 13 289 3.2 12.9 0.00 0.00 0.00 70 1019.5
20260507064538 13 339 4.8 19.3 0.00 0.00 0.00 70 1019.6
20260507063036 13 312 4.8 16.1 0.00 0.00 0.00 69 1019.6
20260507054536 15 310 4.8 12.9 0.00 0.00 0.00 65 1020.0
20260507051535 15 320 3.2 25.7 0.00 0.00 0.00 65 1020.0
20260507050036 14 2 4.8 16.1 0.00 0.00 0.00 66 1020.0
20260507044610 14 4 4.8 12.9 0.00 0.00 0.00 63 1019.9
20260507043036 15 333 4.8 11.3 0.00 0.00 0.00 60 1019.8